| time (UTC) | temp C | wind direction | speed KPH | gust KPH | rain 1hr cm | rain 24hr cm | rain mn cm | humidity % | barometer mb |
| 20260904013512 | 20 | 9 | 0.0 | 3.2 | 0.00 | 0.05 | 0.05 | 90 | 1012.8 |
| 20260904013027 | 20 | 265 | 0.0 | 3.2 | 0.00 | 0.05 | 0.05 | 90 | 1012.8 |
| 20260904012516 | 20 | 265 | 0.0 | 3.2 | 0.00 | 0.05 | 0.05 | 90 | 1012.8 |
| 20260904012016 | 20 | 178 | 0.0 | 3.2 | 0.00 | 0.05 | 0.05 | 90 | 1012.7 |
| 20260904011533 | 20 | 178 | 0.0 | 4.8 | 0.00 | 0.05 | 0.05 | 90 | 1012.7 |
| 20260904011020 | 21 | 232 | 1.6 | 4.8 | 0.00 | 0.05 | 0.05 | 90 | 1012.7 |
| 20260904010517 | 21 | 234 | 1.6 | 4.8 | 0.00 | 0.05 | 0.05 | 90 | 1012.7 |
| 20260904010013 | 21 | 205 | 0.0 | 6.4 | 0.00 | 0.05 | 0.05 | 90 | 1012.8 |
| 20260904005506 | 21 | 247 | 0.0 | 8.0 | 0.00 | 0.05 | 0.05 | 90 | 1012.7 |
| 20260904005006 | 21 | 234 | 3.2 | 8.0 | 0.00 | 0.05 | 0.05 | 90 | 1012.7 |
| 20260904004517 | 21 | 216 | 3.2 | 4.8 | 0.00 | 0.05 | 0.05 | 90 | 1012.5 |
| 20260904004015 | 21 | 221 | 0.0 | 4.8 | 0.00 | 0.05 | 0.05 | 89 | 1012.5 |
| 20260904003513 | 21 | 227 | 1.6 | 6.4 | 0.00 | 0.05 | 0.05 | 89 | 1012.4 |
| 20260904003026 | 21 | 178 | 1.6 | 8.0 | 0.00 | 0.05 | 0.05 | 89 | 1012.4 |
| 20260904002516 | 21 | 178 | 1.6 | 8.0 | 0.00 | 0.05 | 0.05 | 89 | 1012.3 |
| 20260904002014 | 21 | 196 | 1.6 | 6.4 | 0.00 | 0.05 | 0.05 | 89 | 1012.2 |
| 20260904001526 | 22 | 319 | 3.2 | 6.4 | 0.00 | 0.05 | 0.05 | 89 | 1012.1 |
| 20260904001013 | 22 | 234 | 3.2 | 8.0 | 0.00 | 0.05 | 0.05 | 89 | 1011.9 |
| 20260904000515 | 22 | 232 | 3.2 | 8.0 | 0.00 | 0.05 | 0.05 | 88 | 1011.9 |
| 20260904000110 | 22 | 219 | 4.8 | 9.7 | 0.00 | 0.05 | 0.05 | 88 | 1011.8 |
| 20260903235520 | 22 | 265 | 3.2 | 14.5 | 0.00 | 0.05 | 0.05 | 88 | 1011.8 |
| 20260903235014 | 22 | 163 | 6.4 | 14.5 | 0.00 | 0.05 | 0.05 | 88 | 1011.7 |
| 20260903234534 | 22 | 215 | 8.0 | 12.9 | 0.00 | 0.05 | 0.05 | 88 | 1011.7 |
| 20260903234010 | 22 | 229 | 4.8 | 9.7 | 0.00 | 0.05 | 0.05 | 87 | 1011.6 |
| 20260903233511 | 22 | 165 | 1.6 | 8.0 | 0.00 | 0.05 | 0.05 | 87 | 1011.6 |
| 20260903233026 | 23 | 265 | 1.6 | 6.4 | 0.00 | 0.05 | 0.05 | 87 | 1011.7 |
| 20260903232521 | 23 | 221 | 1.6 | 6.4 | 0.00 | 0.05 | 0.05 | 87 | 1011.7 |
| 20260903232014 | 23 | 265 | 0.0 | 3.2 | 0.00 | 0.05 | 0.05 | 86 | 1011.6 |
| 20260903231530 | 23 | 247 | 0.0 | 3.2 | 0.00 | 0.05 | 0.05 | 86 | 1011.5 |
| 20260903231015 | 23 | 51 | 0.0 | 4.8 | 0.00 | 0.05 | 0.05 | 86 | 1011.6 |
| 20260903230517 | 23 | 334 | 1.6 | 6.4 | 0.00 | 0.05 | 0.05 | 86 | 1011.6 |
| 20260903230035 | 23 | 232 | 3.2 | 6.4 | 0.00 | 0.05 | 0.05 | 85 | 1011.7 |
| 20260903225523 | 23 | 265 | 1.6 | 3.2 | 0.00 | 0.05 | 0.05 | 86 | 1011.7 |
| 20260903225015 | 23 | 238 | 1.6 | 4.8 | 0.00 | 0.05 | 0.05 | 86 | 1011.8 |
| 20260903224543 | 23 | 221 | 1.6 | 6.4 | 0.00 | 0.05 | 0.05 | 85 | 1011.6 |
| 20260903224019 | 24 | 250 | 1.6 | 8.0 | 0.00 | 0.05 | 0.05 | 85 | 1011.7 |
| 20260903223524 | 24 | 234 | 4.8 | 8.0 | 0.00 | 0.05 | 0.05 | 85 | 1011.8 |
| 20260903223036 | 24 | 229 | 4.8 | 6.4 | 0.00 | 0.05 | 0.05 | 85 | 1011.7 |
| 20260903222510 | 24 | 229 | 3.2 | 6.4 | 0.00 | 0.05 | 0.05 | 85 | 1011.7 |
| 20260903222012 | 24 | 250 | 1.6 | 4.8 | 0.00 | 0.05 | 0.05 | 85 | 1011.5 |
| 20260903221529 | 24 | 238 | 0.0 | 4.8 | 0.00 | 0.05 | 0.05 | 84 | 1011.7 |
| 20260903221012 | 25 | 238 | 3.2 | 6.4 | 0.00 | 0.05 | 0.05 | 83 | 1011.7 |
| 20260903220514 | 25 | 291 | 3.2 | 9.7 | 0.00 | 0.05 | 0.05 | 82 | 1011.6 |
| 20260903220030 | 25 | 225 | 6.4 | 12.9 | 0.00 | 0.05 | 0.05 | 81 | 1011.7 |
| 20260903215519 | 25 | 200 | 8.0 | 17.7 | 0.00 | 0.05 | 0.05 | 80 | 1011.8 |
| 20260903215014 | 25 | 201 | 6.4 | 17.7 | 0.00 | 0.05 | 0.05 | 80 | 1011.8 |
| 20260903214535 | 25 | 213 | 6.4 | 17.7 | 0.00 | 0.05 | 0.05 | 80 | 1011.9 |
| 20260903214016 | 25 | 213 | 8.0 | 12.9 | 0.00 | 0.05 | 0.05 | 82 | 1012.2 |
| 20260903213520 | 25 | 219 | 6.4 | 11.3 | 0.00 | 0.05 | 0.05 | 82 | 1012.3 |
| 20260903213037 | 25 | 194 | 4.8 | 11.3 | 0.00 | 0.05 | 0.05 | 81 | 1012.1 |
| 20260903212519 | 25 | 209 | 3.2 | 8.0 | 0.00 | 0.05 | 0.05 | 82 | 1012.0 |
| 20260903212014 | 25 | 51 | 1.6 | 6.4 | 0.00 | 0.05 | 0.05 | 84 | 1011.9 |
| 20260903211541 | 24 | 24 | 4.8 | 6.4 | 0.00 | 0.05 | 0.05 | 84 | 1011.9 |
| 20260903211010 | 24 | 309 | 3.2 | 6.4 | 0.00 | 0.05 | 0.05 | 84 | 1012.0 |
| 20260903210512 | 24 | 22 | 0.0 | 4.8 | 0.00 | 0.05 | 0.05 | 83 | 1012.0 |
| 20260903210025 | 24 | 309 | 0.0 | 4.8 | 0.00 | 0.05 | 0.05 | 82 | 1011.9 |
| 20260903205522 | 25 | 265 | 1.6 | 6.4 | 0.00 | 0.05 | 0.05 | 81 | 1011.9 |
| 20260903205015 | 25 | 168 | 1.6 | 8.0 | 0.00 | 0.05 | 0.05 | 81 | 1011.9 |
| 20260903204532 | 25 | 216 | 4.8 | 9.7 | 0.00 | 0.05 | 0.05 | 80 | 1011.9 |
| 20260903204017 | 25 | 212 | 6.4 | 11.3 | 0.00 | 0.05 | 0.05 | 80 | 1012.0 |
| 20260903203519 | 25 | 232 | 4.8 | 14.5 | 0.00 | 0.05 | 0.05 | 79 | 1011.9 |
| 20260903203040 | 25 | 221 | 6.4 | 14.5 | 0.00 | 0.05 | 0.05 | 79 | 1011.9 |
| 20260903202518 | 25 | 194 | 6.4 | 14.5 | 0.00 | 0.05 | 0.05 | 78 | 1011.9 |
| 20260903202015 | 25 | 175 | 8.0 | 14.5 | 0.00 | 0.05 | 0.05 | 79 | 1011.9 |
| 20260903201536 | 25 | 212 | 4.8 | 12.9 | 0.00 | 0.05 | 0.05 | 79 | 1011.9 |
| 20260903201009 | 25 | 220 | 4.8 | 9.7 | 0.00 | 0.05 | 0.05 | 80 | 1011.9 |
| 20260903200506 | 25 | 74 | 3.2 | 16.1 | 0.00 | 0.05 | 0.05 | 81 | 1012.1 |
| 20260903200005 | 25 | 195 | 6.4 | 16.1 | 0.00 | 0.05 | 0.05 | 81 | 1012.1 |
| 20260903195524 | 25 | 219 | 8.0 | 16.1 | 0.00 | 0.05 | 0.05 | 81 | 1012.2 |
| 20260903195004 | 25 | 244 | 4.8 | 12.9 | 0.00 | 0.05 | 0.05 | 81 | 1012.2 |
| 20260903194510 | 25 | 168 | 1.6 | 12.9 | 0.00 | 0.05 | 0.05 | 82 | 1012.3 |
| 20260903194005 | 25 | 51 | 4.8 | 14.5 | 0.00 | 0.05 | 0.05 | 81 | 1012.4 |
| 20260903193507 | 25 | 214 | 4.8 | 16.1 | 0.00 | 0.05 | 0.05 | 81 | 1012.5 |
| 20260903193011 | 24 | 150 | 6.4 | 16.1 | 0.00 | 0.05 | 0.05 | 82 | 1012.4 |
| 20260903192503 | 24 | 232 | 4.8 | 12.9 | 0.00 | 0.05 | 0.05 | 81 | 1012.5 |
| 20260903192008 | 24 | 178 | 4.8 | 12.9 | 0.00 | 0.05 | 0.05 | 82 | 1012.6 |
| 20260903191529 | 23 | 213 | 6.4 | 12.9 | 0.00 | 0.05 | 0.05 | 84 | 1012.7 |
| 20260903191022 | 23 | 196 | 4.8 | 11.3 | 0.00 | 0.05 | 0.05 | 83 | 1012.7 |
| 20260903190510 | 23 | 187 | 3.2 | 9.7 | 0.00 | 0.05 | 0.05 | 83 | 1012.9 |
| 20260903190049 | 23 | 178 | 1.6 | 8.0 | 0.00 | 0.05 | 0.05 | 84 | 1013.0 |
| 20260903185511 | 22 | 205 | 1.6 | 6.4 | 0.00 | 0.05 | 0.05 | 84 | 1013.0 |
| 20260903185014 | 22 | 78 | 1.6 | 6.4 | 0.00 | 0.05 | 0.05 | 85 | 1012.9 |
| 20260903184509 | 22 | 178 | 1.6 | 3.2 | 0.00 | 0.05 | 0.05 | 85 | 1013.0 |
| 20260903184006 | 22 | 51 | 1.6 | 6.4 | 0.00 | 0.05 | 0.05 | 84 | 1013.0 |
| 20260903183503 | 22 | 291 | 1.6 | 9.7 | 0.00 | 0.05 | 0.05 | 86 | 1013.1 |
| 20260903183009 | 22 | 63 | 4.8 | 11.3 | 0.00 | 0.05 | 0.05 | 85 | 1013.1 |
| 20260903182504 | 22 | 31 | 4.8 | 11.3 | 0.00 | 0.05 | 0.05 | 85 | 1013.1 |
| 20260903182004 | 22 | 79 | 4.8 | 16.1 | 0.00 | 0.05 | 0.05 | 84 | 1013.2 |
| 20260903181531 | 22 | 44 | 6.4 | 16.1 | 0.00 | 0.05 | 0.05 | 84 | 1013.2 |
| 20260903181009 | 22 | 38 | 6.4 | 11.3 | 0.00 | 0.05 | 0.05 | 86 | 1013.2 |
| 20260903180508 | 22 | 49 | 6.4 | 8.0 | 0.00 | 0.05 | 0.05 | 86 | 1013.2 |
| 20260903180033 | 21 | 41 | 1.6 | 14.5 | 0.00 | 0.05 | 0.05 | 86 | 1013.1 |
| 20260903175510 | 22 | 47 | 6.4 | 14.5 | 0.00 | 0.05 | 0.05 | 87 | 1013.2 |
| 20260903175010 | 21 | 41 | 4.8 | 12.9 | 0.00 | 0.05 | 0.05 | 87 | 1013.2 |
| 20260903174526 | 21 | 65 | 4.8 | 12.9 | 0.00 | 0.05 | 0.05 | 87 | 1013.2 |
| 20260903174014 | 21 | 41 | 4.8 | 11.3 | 0.00 | 0.05 | 0.05 | 88 | 1013.2 |
| 20260903173512 | 21 | 51 | 3.2 | 11.3 | 0.00 | 0.05 | 0.05 | 88 | 1013.3 |
| 20260903173004 | 21 | 48 | 4.8 | 9.7 | 0.00 | 0.05 | 0.05 | 87 | 1013.3 |
| 20260903172504 | 21 | 57 | 4.8 | 12.9 | 0.00 | 0.05 | 0.05 | 87 | 1013.6 |
| 20260903172003 | 21 | 68 | 6.4 | 12.9 | 0.00 | 0.05 | 0.05 | 87 | 1013.7 |
| 20260903171522 | 21 | 48 | 4.8 | 9.7 | 0.00 | 0.05 | 0.05 | 87 | 1013.6 |
| 20260903171007 | 21 | 51 | 3.2 | 4.8 | 0.00 | 0.05 | 0.05 | 87 | 1013.7 |
| 20260903170506 | 21 | 51 | 1.6 | 6.4 | 0.00 | 0.05 | 0.05 | 86 | 1013.8 |
| 20260903170051 | 21 | 51 | 1.6 | 12.9 | 0.00 | 0.05 | 0.05 | 87 | 1013.8 |
| 20260903165509 | 21 | 26 | 3.2 | 14.5 | 0.00 | 0.05 | 0.05 | 87 | 1013.8 |
| 20260903165020 | 21 | 13 | 6.4 | 14.5 | 0.00 | 0.05 | 0.05 | 86 | 1013.8 |
| 20260903164522 | 21 | 40 | 4.8 | 12.9 | 0.00 | 0.05 | 0.05 | 88 | 1013.8 |
| 20260903164012 | 21 | 34 | 1.6 | 12.9 | 0.00 | 0.05 | 0.05 | 86 | 1013.8 |
| 20260903163522 | 21 | 51 | 4.8 | 12.9 | 0.00 | 0.05 | 0.05 | 85 | 1013.9 |
| 20260903163035 | 21 | 63 | 3.2 | 12.9 | 0.00 | 0.05 | 0.05 | 87 | 1013.9 |
| 20260903162515 | 21 | 33 | 4.8 | 12.9 | 0.00 | 0.05 | 0.05 | 87 | 1013.8 |
| 20260903162017 | 21 | 59 | 3.2 | 11.3 | 0.00 | 0.05 | 0.05 | 87 | 1013.9 |
| 20260903161508 | 20 | 84 | 6.4 | 11.3 | 0.00 | 0.05 | 0.05 | 88 | 1014.0 |
| 20260903161004 | 20 | 44 | 3.2 | 9.7 | 0.00 | 0.05 | 0.05 | 88 | 1014.1 |
| 20260903160508 | 20 | 26 | 3.2 | 9.7 | 0.00 | 0.05 | 0.05 | 88 | 1014.2 |
| 20260903160015 | 20 | 61 | 4.8 | 12.9 | 0.00 | 0.05 | 0.05 | 88 | 1014.2 |
| 20260903155508 | 20 | 61 | 3.2 | 12.9 | 0.00 | 0.05 | 0.05 | 88 | 1014.2 |
| 20260903155010 | 20 | 84 | 6.4 | 12.9 | 0.00 | 0.05 | 0.05 | 88 | 1014.2 |
| 20260903154519 | 20 | 221 | 1.6 | 12.9 | 0.00 | 0.05 | 0.05 | 87 | 1014.1 |
| 20260903154015 | 20 | 59 | 8.0 | 12.9 | 0.00 | 0.05 | 0.05 | 88 | 1014.0 |
| 20260903153510 | 20 | 59 | 4.8 | 9.7 | 0.00 | 0.05 | 0.05 | 88 | 1014.1 |
| 20260903153028 | 20 | 51 | 3.2 | 12.9 | 0.00 | 0.05 | 0.05 | 88 | 1014.2 |
| 20260903152516 | 20 | 44 | 4.8 | 12.9 | 0.00 | 0.05 | 0.05 | 88 | 1014.3 |
| 20260903152018 | 20 | 30 | 3.2 | 11.3 | 0.00 | 0.05 | 0.05 | 87 | 1014.3 |
| 20260903151531 | 20 | 61 | 1.6 | 6.4 | 0.00 | 0.05 | 0.05 | 92 | 1014.4 |
| 20260903151016 | 19 | 265 | 3.2 | 8.0 | 0.00 | 0.05 | 0.05 | 89 | 1014.3 |
| 20260903150514 | 18 | 196 | 1.6 | 8.0 | 0.00 | 0.05 | 0.05 | 90 | 1014.4 |
| 20260903150042 | 18 | 265 | 1.6 | 6.4 | 0.00 | 0.05 | 0.05 | 90 | 1014.4 |
| 20260903145507 | 18 | 26 | 1.6 | 6.4 | 0.00 | 0.05 | 0.05 | 90 | 1014.6 |
| 20260903145008 | 18 | 193 | 1.6 | 6.4 | 0.00 | 0.05 | 0.05 | 90 | 1014.7 |
| 20260903144517 | 18 | 153 | 1.6 | 6.4 | 0.00 | 0.05 | 0.05 | 91 | 1014.6 |
| 20260903144011 | 18 | 158 | 1.6 | 9.7 | 0.00 | 0.05 | 0.05 | 91 | 1014.7 |
| 20260903143510 | 18 | 137 | 1.6 | 9.7 | 0.00 | 0.05 | 0.05 | 91 | 1014.7 |
| 20260903143023 | 18 | 137 | 3.2 | 9.7 | 0.00 | 0.05 | 0.05 | 92 | 1014.7 |
| 20260903142511 | 18 | 309 | 1.6 | 6.4 | 0.00 | 0.05 | 0.05 | 92 | 1014.7 |
| 20260903142015 | 18 | 178 | 1.6 | 8.0 | 0.00 | 0.05 | 0.05 | 92 | 1014.8 |
| 20260903141527 | 18 | 221 | 3.2 | 8.0 | 0.00 | 0.05 | 0.05 | 92 | 1014.8 |
| 20260903141015 | 18 | 178 | 3.2 | 9.7 | 0.00 | 0.05 | 0.05 | 93 | 1014.9 |
| 20260903140517 | 18 | 298 | 4.8 | 9.7 | 0.00 | 0.05 | 0.05 | 93 | 1014.7 |
| 20260903140037 | 18 | 208 | 6.4 | 9.7 | 0.00 | 0.05 | 0.05 | 93 | 1014.7 |
| 20260903135517 | 17 | 216 | 3.2 | 8.0 | 0.00 | 0.05 | 0.05 | 94 | 1014.6 |
| 20260903135015 | 17 | 221 | 3.2 | 9.7 | 0.00 | 0.05 | 0.05 | 94 | 1014.6 |
| 20260903134528 | 17 | 210 | 4.8 | 9.7 | 0.00 | 0.05 | 0.05 | 94 | 1014.7 |
| 20260903134007 | 17 | 196 | 4.8 | 9.7 | 0.00 | 0.05 | 0.05 | 94 | 1014.7 |
| 20260903133510 | 17 | 211 | 3.2 | 8.0 | 0.00 | 0.05 | 0.05 | 94 | 1014.8 |
| 20260903133024 | 17 | 196 | 1.6 | 6.4 | 0.00 | 0.05 | 0.05 | 94 | 1014.8 |
| 20260903132512 | 17 | 214 | 3.2 | 6.4 | 0.00 | 0.05 | 0.05 | 94 | 1014.9 |
| 20260903132015 | 17 | 212 | 1.6 | 8.0 | 0.00 | 0.05 | 0.05 | 94 | 1014.9 |
| 20260903131527 | 17 | 213 | 4.8 | 8.0 | 0.00 | 0.05 | 0.05 | 94 | 1014.9 |
| 20260903131018 | 17 | 191 | 3.2 | 6.4 | 0.00 | 0.05 | 0.05 | 94 | 1014.9 |
| 20260903130512 | 17 | 238 | 3.2 | 6.4 | 0.00 | 0.05 | 0.05 | 94 | 1014.9 |
| 20260903130031 | 17 | 229 | 3.2 | 8.0 | 0.00 | 0.05 | 0.05 | 94 | 1014.9 |
| 20260903125516 | 17 | 247 | 3.2 | 8.0 | 0.00 | 0.05 | 0.05 | 94 | 1014.9 |
| 20260903125021 | 17 | 190 | 1.6 | 9.7 | 0.00 | 0.05 | 0.05 | 94 | 1015.0 |
| 20260903124531 | 17 | 178 | 4.8 | 9.7 | 0.00 | 0.05 | 0.05 | 94 | 1015.0 |
| 20260903124015 | 17 | 195 | 6.4 | 9.7 | 0.00 | 0.05 | 0.05 | 94 | 1015.1 |
| 20260903123515 | 17 | 161 | 3.2 | 9.7 | 0.00 | 0.05 | 0.05 | 93 | 1015.2 |
| 20260903123033 | 17 | 198 | 3.2 | 6.4 | 0.00 | 0.05 | 0.05 | 93 | 1015.1 |
| 20260903122519 | 17 | 243 | 3.2 | 6.4 | 0.00 | 0.05 | 0.05 | 93 | 1015.3 |
| 20260903122008 | 16 | 211 | 3.2 | 6.4 | 0.00 | 0.05 | 0.05 | 93 | 1015.3 |
| 20260903121526 | 16 | 178 | 3.2 | 6.4 | 0.00 | 0.05 | 0.05 | 94 | 1015.4 |
| 20260903121010 | 16 | 221 | 3.2 | 6.4 | 0.00 | 0.05 | 0.05 | 94 | 1015.3 |
| 20260903120512 | 16 | 221 | 1.6 | 4.8 | 0.00 | 0.05 | 0.05 | 93 | 1015.3 |
| 20260903120028 | 16 | 153 | 1.6 | 11.3 | 0.00 | 0.05 | 0.05 | 93 | 1015.4 |
| 20260903115515 | 16 | 161 | 3.2 | 11.3 | 0.00 | 0.05 | 0.05 | 93 | 1015.4 |
| 20260903115016 | 16 | 229 | 6.4 | 11.3 | 0.00 | 0.05 | 0.05 | 93 | 1015.4 |
| 20260903114533 | 16 | 213 | 6.4 | 11.3 | 0.00 | 0.05 | 0.05 | 93 | 1015.5 |
| 20260903114017 | 16 | 178 | 3.2 | 9.7 | 0.00 | 0.05 | 0.05 | 93 | 1015.3 |
| 20260903113521 | 16 | 221 | 4.8 | 9.7 | 0.00 | 0.05 | 0.05 | 93 | 1015.5 |
| 20260903113033 | 16 | 205 | 4.8 | 9.7 | 0.00 | 0.05 | 0.05 | 93 | 1015.5 |
| 20260903112516 | 16 | 221 | 6.4 | 9.7 | 0.00 | 0.05 | 0.05 | 93 | 1015.6 |
| 20260903112022 | 16 | 265 | 1.6 | 8.0 | 0.00 | 0.05 | 0.05 | 93 | 1015.5 |
| 20260903111535 | 16 | 211 | 3.2 | 8.0 | 0.00 | 0.05 | 0.05 | 93 | 1015.5 |
| 20260903111020 | 16 | 196 | 3.2 | 9.7 | 0.00 | 0.05 | 0.05 | 93 | 1015.7 |
| 20260903110513 | 16 | 221 | 3.2 | 9.7 | 0.00 | 0.05 | 0.05 | 93 | 1015.7 |
| 20260903110026 | 16 | 227 | 3.2 | 8.0 | 0.00 | 0.05 | 0.05 | 93 | 1015.7 |
| 20260903105511 | 16 | 214 | 3.2 | 6.4 | 0.00 | 0.05 | 0.05 | 93 | 1015.7 |
| 20260903105016 | 16 | 238 | 3.2 | 6.4 | 0.00 | 0.05 | 0.05 | 93 | 1015.7 |
| 20260903104531 | 16 | 196 | 3.2 | 6.4 | 0.00 | 0.05 | 0.05 | 93 | 1015.7 |
| 20260903104021 | 16 | 193 | 1.6 | 6.4 | 0.00 | 0.05 | 0.05 | 93 | 1015.6 |
| 20260903103514 | 16 | 178 | 0.0 | 4.8 | 0.00 | 0.05 | 0.05 | 93 | 1015.6 |
| 20260903103030 | 16 | 51 | 0.0 | 8.0 | 0.00 | 0.05 | 0.05 | 93 | 1015.4 |
| 20260903102516 | 16 | 291 | 3.2 | 8.0 | 0.00 | 0.05 | 0.05 | 93 | 1015.4 |
| 20260903102018 | 16 | 209 | 3.2 | 6.4 | 0.00 | 0.05 | 0.05 | 93 | 1015.3 |
| 20260903101511 | 16 | 205 | 3.2 | 11.3 | 0.00 | 0.05 | 0.05 | 92 | 1015.4 |
| 20260903101004 | 16 | 218 | 6.4 | 11.3 | 0.00 | 0.05 | 0.05 | 92 | 1015.4 |
| 20260903100504 | 16 | 216 | 4.8 | 11.3 | 0.00 | 0.05 | 0.05 | 92 | 1015.4 |
| 20260903100013 | 16 | 232 | 6.4 | 11.3 | 0.00 | 0.05 | 0.05 | 92 | 1015.4 |
| 20260903095503 | 16 | 219 | 4.8 | 9.7 | 0.00 | 0.05 | 0.05 | 92 | 1015.4 |
| 20260903095003 | 16 | 245 | 3.2 | 11.3 | 0.00 | 0.05 | 0.05 | 92 | 1015.4 |
| 20260903094505 | 16 | 227 | 4.8 | 11.3 | 0.00 | 0.05 | 0.05 | 92 | 1015.5 |
| 20260903094006 | 16 | 238 | 4.8 | 9.7 | 0.00 | 0.05 | 0.05 | 92 | 1015.5 |
| 20260903093505 | 16 | 205 | 3.2 | 9.7 | 0.00 | 0.05 | 0.05 | 92 | 1015.6 |
| 20260903093006 | 16 | 265 | 3.2 | 6.4 | 0.00 | 0.05 | 0.05 | 92 | 1015.7 |
| 20260903092508 | 16 | 178 | 1.6 | 14.5 | 0.00 | 0.05 | 0.05 | 92 | 1015.6 |
| 20260903092007 | 16 | 265 | 3.2 | 14.5 | 0.00 | 0.05 | 0.05 | 92 | 1015.7 |
| 20260903091513 | 16 | 245 | 4.8 | 8.0 | 0.00 | 0.05 | 0.05 | 92 | 1015.5 |
| 20260903091008 | 16 | 213 | 3.2 | 8.0 | 0.00 | 0.05 | 0.05 | 92 | 1015.5 |
| 20260903090508 | 16 | 221 | 4.8 | 11.3 | 0.00 | 0.05 | 0.05 | 92 | 1015.6 |
| 20260903090018 | 16 | 229 | 4.8 | 11.3 | 0.00 | 0.05 | 0.05 | 92 | 1015.7 |
| 20260903085507 | 16 | 214 | 4.8 | 11.3 | 0.00 | 0.05 | 0.05 | 91 | 1015.7 |
| 20260903085007 | 16 | 196 | 4.8 | 11.3 | 0.00 | 0.05 | 0.05 | 91 | 1015.8 |
| 20260903084519 | 16 | 210 | 3.2 | 8.0 | 0.00 | 0.05 | 0.05 | 91 | 1015.9 |
| 20260903084003 | 16 | 215 | 4.8 | 8.0 | 0.00 | 0.05 | 0.05 | 91 | 1016.2 |
| 20260903083503 | 16 | 209 | 4.8 | 8.0 | 0.00 | 0.05 | 0.05 | 91 | 1016.3 |
| 20260903083007 | 16 | 178 | 1.6 | 8.0 | 0.00 | 0.05 | 0.05 | 91 | 1016.2 |
| 20260903082507 | 16 | 196 | 4.8 | 14.5 | 0.00 | 0.05 | 0.05 | 91 | 1016.1 |
| 20260903082006 | 16 | 202 | 4.8 | 14.5 | 0.00 | 0.05 | 0.05 | 91 | 1016.2 |
| 20260903081513 | 16 | 205 | 4.8 | 12.9 | 0.00 | 0.05 | 0.05 | 90 | 1016.3 |
| 20260903081010 | 16 | 207 | 4.8 | 8.0 | 0.00 | 0.05 | 0.05 | 91 | 1016.3 |
| 20260903080512 | 16 | 229 | 1.6 | 6.4 | 0.00 | 0.05 | 0.05 | 90 | 1016.3 |
| 20260903080016 | 16 | 161 | 1.6 | 3.2 | 0.00 | 0.05 | 0.05 | 90 | 1016.2 |
| 20260903075506 | 16 | 325 | 0.0 | 3.2 | 0.00 | 0.05 | 0.05 | 90 | 1016.3 |
| 20260903075010 | 16 | 309 | 0.0 | 1.6 | 0.00 | 0.05 | 0.05 | 90 | 1016.1 |
| 20260903074520 | 16 | 51 | 0.0 | 1.6 | 0.00 | 0.05 | 0.05 | 90 | 1016.1 |
| 20260903074010 | 16 | 93 | 0.0 | 3.2 | 0.00 | 0.05 | 0.05 | 90 | 1016.1 |
| 20260903073509 | 16 | 325 | 0.0 | 3.2 | 0.00 | 0.05 | 0.05 | 90 | 1016.2 |
| 20260903073019 | 17 | 291 | 0.0 | 4.8 | 0.00 | 0.05 | 0.05 | 90 | 1016.2 |
| 20260903072510 | 17 | 9 | 0.0 | 6.4 | 0.00 | 0.05 | 0.05 | 89 | 1016.2 |
| 20260903072002 | 17 | 234 | 3.2 | 8.0 | 0.00 | 0.05 | 0.05 | 89 | 1016.2 |
| 20260903071523 | 17 | 178 | 3.2 | 8.0 | 0.03 | 0.05 | 0.05 | 89 | 1016.3 |
| 20260903071003 | 17 | 201 | 3.2 | 8.0 | 0.03 | 0.05 | 0.05 | 89 | 1016.5 |
| 20260903070503 | 17 | 178 | 3.2 | 8.0 | 0.03 | 0.05 | 0.05 | 89 | 1016.6 |
| 20260903070050 | 17 | 51 | 0.0 | 4.8 | 0.03 | 0.05 | 0.05 | 88 | 1016.7 |
| 20260903065506 | 17 | 215 | 1.6 | 4.8 | 0.05 | 0.05 | 0.05 | 88 | 1016.5 |
| 20260903065010 | 17 | 232 | 3.2 | 8.0 | 0.05 | 0.05 | 0.05 | 88 | 1016.5 |
| 20260903064518 | 17 | 221 | 3.2 | 8.0 | 0.05 | 0.05 | 0.05 | 87 | 1016.5 |
| 20260903064012 | 17 | 196 | 1.6 | 4.8 | 0.05 | 0.05 | 0.05 | 87 | 1016.6 |
| 20260903063515 | 17 | 146 | 1.6 | 11.3 | 0.05 | 0.05 | 0.05 | 87 | 1016.6 |
| 20260903063022 | 17 | 51 | 0.0 | 11.3 | 0.05 | 0.05 | 0.05 | 87 | 1016.4 |
| 20260903062510 | 17 | 238 | 4.8 | 11.3 | 0.05 | 0.05 | 0.05 | 86 | 1016.3 |
| 20260903062015 | 17 | 208 | 3.2 | 14.5 | 0.05 | 0.05 | 0.05 | 86 | 1016.3 |
| 20260903061527 | 17 | 221 | 6.4 | 16.1 | 0.03 | 0.03 | 0.03 | 85 | 1016.7 |
| 20260903061013 | 17 | 178 | 4.8 | 16.1 | 0.03 | 0.03 | 0.03 | 85 | 1016.7 |
| 20260903060505 | 17 | 198 | 6.4 | 16.1 | 0.03 | 0.03 | 0.03 | 84 | 1016.9 |
| 20260903060015 | 17 | 198 | 8.0 | 16.1 | 0.03 | 0.03 | 0.03 | 83 | 1017.1 |
| 20260903055507 | 18 | 209 | 4.8 | 11.3 | 0.00 | 0.00 | 0.00 | 83 | 1017.1 |
| 20260903055005 | 18 | 205 | 4.8 | 12.9 | 0.00 | 0.00 | 0.00 | 82 | 1017.3 |
| 20260903054536 | 18 | 227 | 4.8 | 16.1 | 0.00 | 0.00 | 0.00 | 82 | 1017.4 |
| 20260903054008 | 18 | 216 | 6.4 | 16.1 | 0.00 | 0.00 | 0.00 | 81 | 1017.6 |
| 20260903053508 | 18 | 223 | 9.7 | 16.1 | 0.00 | 0.00 | 0.00 | 80 | 1017.7 |
| 20260903053024 | 18 | 221 | 8.0 | 17.7 | 0.00 | 0.00 | 0.00 | 79 | 1017.8 |
| 20260903052512 | 18 | 210 | 9.7 | 22.5 | 0.00 | 0.00 | 0.00 | 79 | 1017.9 |
| 20260903052014 | 18 | 186 | 8.0 | 22.5 | 0.00 | 0.00 | 0.00 | 78 | 1017.9 |
| 20260903051528 | 18 | 219 | 6.4 | 11.3 | 0.00 | 0.00 | 0.00 | 78 | 1017.9 |
| 20260903051016 | 18 | 214 | 8.0 | 19.3 | 0.00 | 0.00 | 0.00 | 77 | 1017.9 |
| 20260903050513 | 18 | 219 | 9.7 | 19.3 | 0.00 | 0.00 | 0.00 | 77 | 1017.8 |
| 20260903050040 | 18 | 229 | 3.2 | 17.7 | 0.00 | 0.00 | 0.00 | 76 | 1017.8 |
| 20260903045513 | 18 | 218 | 11.3 | 17.7 | 0.00 | 0.00 | 0.00 | 76 | 1017.8 |
| 20260903045006 | 18 | 265 | 4.8 | 16.1 | 0.00 | 0.00 | 0.00 | 76 | 1017.7 |
| 20260903044514 | 18 | 193 | 8.0 | 16.1 | 0.00 | 0.00 | 0.00 | 77 | 1017.7 |
| 20260903044008 | 18 | 219 | 8.0 | 16.1 | 0.00 | 0.00 | 0.00 | 77 | 1017.8 |
| 20260903043510 | 18 | 153 | 4.8 | 11.3 | 0.00 | 0.00 | 0.00 | 77 | 1017.8 |
| 20260903043023 | 18 | 224 | 6.4 | 11.3 | 0.00 | 0.00 | 0.00 | 77 | 1017.8 |
| 20260903042511 | 18 | 214 | 4.8 | 14.5 | 0.00 | 0.00 | 0.00 | 77 | 1017.9 |
| 20260903042014 | 18 | 225 | 6.4 | 14.5 | 0.00 | 0.00 | 0.00 | 77 | 1017.9 |
| 20260903041527 | 18 | 205 | 6.4 | 20.9 | 0.00 | 0.00 | 0.00 | 77 | 1018.1 |
| 20260903041014 | 18 | 221 | 8.0 | 20.9 | 0.00 | 0.00 | 0.00 | 77 | 1018.1 |
| 20260903040514 | 18 | 227 | 6.4 | 12.9 | 0.00 | 0.00 | 0.00 | 77 | 1018.1 |
| 20260903040031 | 18 | 191 | 6.4 | 16.1 | 0.00 | 0.00 | 0.00 | 78 | 1018.2 |
| 20260903035516 | 19 | 242 | 6.4 | 16.1 | 0.00 | 0.00 | 0.00 | 78 | 1018.4 |
| 20260903035016 | 19 | 214 | 8.0 | 16.1 | 0.00 | 0.00 | 0.00 | 78 | 1018.4 |
| 20260903034528 | 19 | 194 | 8.0 | 16.1 | 0.00 | 0.00 | 0.00 | 77 | 1018.2 |
| 20260903034017 | 19 | 194 | 6.4 | 19.3 | 0.00 | 0.00 | 0.00 | 77 | 1018.1 |
| 20260903033515 | 19 | 208 | 8.0 | 19.3 | 0.00 | 0.00 | 0.00 | 78 | 1018.1 |
| 20260903033015 | 19 | 224 | 6.4 | 17.7 | 0.00 | 0.00 | 0.00 | 78 | 1018.3 |
| 20260903032510 | 19 | 146 | 8.0 | 16.1 | 0.00 | 0.00 | 0.00 | 78 | 1018.4 |
| 20260903032016 | 19 | 200 | 4.8 | 16.1 | 0.00 | 0.00 | 0.00 | 78 | 1018.4 |
| 20260903031524 | 19 | 219 | 4.8 | 16.1 | 0.00 | 0.00 | 0.00 | 78 | 1018.4 |
| 20260903031014 | 19 | 225 | 8.0 | 16.1 | 0.00 | 0.00 | 0.00 | 78 | 1018.5 |
| 20260903030513 | 19 | 229 | 4.8 | 12.9 | 0.00 | 0.00 | 0.00 | 78 | 1018.4 |
| 20260903030028 | 19 | 220 | 6.4 | 11.3 | 0.00 | 0.00 | 0.00 | 79 | 1018.6 |
| 20260903025515 | 19 | 205 | 4.8 | 17.7 | 0.00 | 0.00 | 0.00 | 79 | 1018.5 |
| 20260903025014 | 19 | 188 | 9.7 | 20.9 | 0.00 | 0.00 | 0.00 | 79 | 1018.7 |
| 20260903024533 | 19 | 247 | 8.0 | 20.9 | 0.00 | 0.00 | 0.00 | 79 | 1018.5 |
| 20260903024015 | 19 | 219 | 8.0 | 16.1 | 0.00 | 0.00 | 0.00 | 80 | 1018.7 |
| 20260903023517 | 19 | 229 | 6.4 | 17.7 | 0.00 | 0.00 | 0.00 | 80 | 1018.8 |
| 20260903023039 | 19 | 237 | 6.4 | 17.7 | 0.00 | 0.00 | 0.00 | 81 | 1018.8 |
| 20260903022518 | 19 | 232 | 8.0 | 19.3 | 0.00 | 0.00 | 0.00 | 81 | 1018.8 |
| 20260903022016 | 19 | 223 | 9.7 | 19.3 | 0.00 | 0.00 | 0.00 | 82 | 1019.0 |
| 20260903021518 | 19 | 190 | 6.4 | 14.5 | 0.00 | 0.00 | 0.00 | 83 | 1018.7 |
| 20260903021011 | 19 | 214 | 9.7 | 14.5 | 0.00 | 0.00 | 0.00 | 84 | 1018.9 |
| 20260903020515 | 18 | 207 | 8.0 | 16.1 | 0.00 | 0.00 | 0.00 | 85 | 1019.1 |
| 20260903020025 | 18 | 225 | 9.7 | 16.1 | 0.00 | 0.00 | 0.00 | 85 | 1019.2 |
| 20260903015515 | 19 | 231 | 8.0 | 12.9 | 0.00 | 0.00 | 0.00 | 86 | 1019.2 |
| 20260903015014 | 19 | 227 | 6.4 | 12.9 | 0.00 | 0.00 | 0.00 | 87 | 1019.4 |
| 20260903014528 | 19 | 214 | 6.4 | 12.9 | 0.00 | 0.00 | 0.00 | 88 | 1019.4 |
| 20260903014016 | 19 | 234 | 4.8 | 9.7 | 0.00 | 0.00 | 0.00 | 88 | 1019.5 |